Location: Newark
(51.5714°N, 0.6956°E)
Time: 20:18:12
(UTC+00:00)

Envisat - Visible Passes

Search period start: 17 October 2019 00:00
Search period end: 27 October 2019 00:00
Orbit: 764 x 766 km, 98.1° (Epoch: 17 October)

Date Brightness Start Highest point End Pass type
(mag) Time Alt. Az. Time Alt. Az. Time Alt. Az.
17 Oct 3.0 17:44:25 10° SSE 17:49:29 83° ENE 17:54:37 10° NNW visible
17 Oct 5.9 19:26:00 10° SW 19:29:11 17° W 19:32:24 10° NW visible
18 Oct 6.0 05:48:37 10° NE 05:52:20 20° E 05:56:01 10° SE visible
18 Oct 4.9 18:47:29 10° SSW 18:52:00 32° W 18:56:33 10° NNW visible
19 Oct 3.6 18:10:00 10° S 18:15:01 62° WSW 18:20:06 10° NNW visible
20 Oct 3.0 17:33:12 10° SSE 17:38:14 69° ENE 17:43:19 10° N visible
20 Oct 5.6 19:14:04 10° SW 19:17:47 20° W 19:21:31 10° NW visible
21 Oct 6.1 05:37:44 10° NE 05:40:55 16° E 05:44:04 10° SE visible
21 Oct 4.5 18:35:56 10° SSW 18:40:39 38° W 18:45:25 10° NNW visible
22 Oct 3.2 17:58:39 10° S 18:03:44 76° WSW 18:08:51 10° NNW visible
22 Oct 6.1 19:41:35 10° WSW 19:43:39 12° W 19:45:45 10° WNW visible
23 Oct 5.7 06:02:29 10° NE 06:06:44 26° E 06:10:57 10° SSE visible
23 Oct 3.1 17:22:02 10° SSE 17:27:00 57° ENE 17:32:00 10° N visible
23 Oct 5.3 19:02:16 10° SW 19:06:23 24° W 19:10:31 10° NW visible
24 Oct 6.3 05:27:04 10° NE 05:29:29 13° E 05:31:54 10° ESE visible
24 Oct 4.1 18:24:26 10° S 18:29:19 47° W 18:34:15 10° NNW visible
25 Oct 3.0 17:47:22 10° SSE 17:52:27 89° E 17:57:36 10° NNW visible
25 Oct 6.0 19:29:17 10° WSW 19:32:13 15° W 19:35:10 10° NW visible
26 Oct 5.9 05:51:28 10° NE 05:55:21 21° E 05:59:13 10° SE visible
26 Oct 3.3 17:10:57 10° SE 17:15:47 47° ENE 17:20:39 10° N visible
26 Oct 5.0 18:50:36 10° SSW 18:55:01 29° W 18:59:28 10° NNW visible
